Location: Nairn
(57.5833°N, 3.8667°W)
Time: 15:50:30
(UTC+00:00)

Meteor 1-24 Rocket - Pass Details

Date: 07 August 2020
Orbit: 789 x 928 km, 81.3° (Epoch: 22 September)

Event Time Altitude Azimuth Distance (km) Brightness Sun altitude
Rises 01:53:46 0° 344° (NNW) 3,442 7.7 -13.6°
Reaches altitude 10° 01:56:16 10° 347° (NNW) 2,480 7.0 -13.5°
Maximum altitude 02:01:51 69° 71° (ENE) 883 4.0 -13.2°
Drops below altitude 10° 02:07:13 10° 155° (SSE) 2,384 5.7 -12.9°
Enters shadow 02:08:29 - 157° (SSE) 2,869 6.1 -12.8°
